GORIZONT 1 1 11158U 78118A 23340.01170217 -.00000073 00000-0 00000-0 0 9993 2 11158 11.2697 184.4708 3318491 310.7808 24.8604 1.00235352113675 GORIZONT 2 1 11440U 79062A 23340.85600569 -.00000157 00000-0 00000-0 0 9999 2 11440 8.0086 295.6928 0004812 308.6714 223.5112 1.00243945128767 GORIZONT 3 1 11648U 79105A 23340.92640711 -.00000086 00000-0 00000+0 0 9998 2 11648 8.1776 297.2482 0012831 233.2859 316.5184 1.00195882113201 GORIZONT 4 1 11841U 80049A 23340.08105188 -.00000028 00000-0 00000-0 0 9990 2 11841 9.3660 303.5405 0001951 311.2394 243.3350 0.98629400224400 GORIZONT 5 1 13092U 82020A 23340.89499190 -.00000039 00000-0 00000-0 0 9991 2 13092 10.4123 309.0108 0033986 228.2980 140.3966 0.98531006112509 GORIZONT 6 1 13624U 82103A 23340.82972483 -.00000270 00000-0 00000-0 0 9995 2 13624 9.3562 309.1803 0001863 270.9025 106.3751 1.00327552111696 GORIZONT 7 1 14160U 83066A 23340.89612319 -.00000061 00000-0 00000-0 0 9994 2 14160 11.1214 319.0036 0010618 322.6259 42.4779 0.98347384145673 GORIZONT 8 1 14532U 83118A 23341.06154312 -.00000054 00000-0 00000+0 0 9990 2 14532 11.3225 320.9380 0029415 163.7662 10.3313 0.98269679111468 GORIZONT 9 1 14940U 84041A 23340.83035524 -.00000115 00000-0 00000-0 0 9995 2 14940 10.5057 318.8468 0005369 238.1016 253.9511 1.00322145112682 GORIZONT 10 1 15144U 84078A 23340.60767097 -.00000131 00000-0 00000-0 0 9992 2 15144 10.6173 319.8728 0001324 259.7891 332.9307 1.00379092145316 GORIZONT 11 1 15484U 85007A 23340.86462095 -.00000348 00000-0 00000-0 0 9990 2 15484 10.8219 321.9151 0003123 197.5406 354.8300 1.00209098143378 GORIZONT 12 1 16769U 86044A 23339.98417462 -.00000251 00000-0 00000-0 0 9991 2 16769 11.5345 327.4302 0003140 258.8947 293.5584 1.00338421137999 GORIZONT 13 1 17083U 86090A 23340.86261942 -.00000109 00000-0 00000-0 0 9993 2 17083 13.5112 334.8377 0013337 341.2647 187.3085 0.96726261109712 GORIZONT 14 1 17969U 87040A 23339.76127793 -.00000157 00000-0 00000-0 0 9997 2 17969 12.3076 326.0230 0031242 189.0563 175.7413 0.97660087110837 GORIZONT 15 1 19017U 88028A 23341.13117160 -.00000103 00000-0 00000+0 0 9991 2 19017 13.8600 337.5103 0036534 171.3999 0.8690 0.97828978110452 GORIZONT 16 1 19397U 88071A 23340.79665449 -.00000282 00000-0 00000-0 0 9998 2 19397 12.7006 336.1855 0011877 74.3487 97.2984 0.99988220129003 GORIZONT 17 1 19765U 89004A 23340.36633819 -.00000115 00000-0 00000-0 0 9998 2 19765 13.3076 339.6198 0022422 149.2056 4.0598 0.99065053126426 GORIZONT 18 1 20107U 89052A 23340.79761175 -.00000296 00000-0 00000-0 0 9997 2 20107 13.3775 340.8488 0034006 326.1791 206.0609 0.99405347125232 GORIZONT 19 1 20263U 89081A 23339.98452184 -.00000191 00000-0 00000-0 0 9992 2 20263 13.0930 339.9779 0005440 221.4320 314.6343 1.00193607 38074 GORIZONT 20 1 20659U 90054A 23341.06537212 .00000060 00000-0 00000+0 0 9994 2 20659 13.5878 342.7520 0007462 192.1891 340.5326 1.00298716122427 GORIZONT 21 1 20923U 90094A 23340.76619653 -.00000063 00000-0 00000-0 0 9993 2 20923 13.6146 343.5028 0007115 221.9166 138.7153 1.00294514121193 GORIZONT 22 1 20953U 90102A 23340.70040730 .00000113 00000-0 00000-0 0 9999 2 20953 13.5813 343.9213 0001273 355.1616 10.8250 1.00209489121112 GORIZONT 23 1 21533U 91046A 23340.73591260 -.00000058 00000-0 00000-0 0 9993 2 21533 14.4261 348.1241 0004685 293.9455 259.1750 0.98909545 37555 GORIZONT 24 1 21759U 91074A 23340.59820854 -.00000031 00000-0 00000-0 0 9993 2 21759 14.6212 350.0881 0020077 236.7209 284.5823 0.98442994115864 GORIZONT 25 1 21922U 92017A 23340.70119052 .00000084 00000-0 00000-0 0 9994 2 21922 14.1525 349.3269 0027151 96.6357 268.3270 0.99852134115729 GORIZONT 26 1 22041U 92043A 23340.89986517 -.00000216 00000-0 00000-0 0 9992 2 22041 14.3654 351.4027 0033436 246.2047 105.8188 0.99243654114302 GORIZONT 27 1 22245U 92082A 23340.96929898 -.00000274 00000-0 00000+0 0 9991 2 22245 14.2751 350.8654 0010059 14.5999 352.9455 1.00164187117909 GORIZONT 28 1 22880U 93069A 23341.24225793 -.00000059 00000-0 00000+0 0 9998 2 22880 14.4991 354.8128 0034127 148.3690 282.4132 0.99648160109947 GORIZONT 29 1 22907U 93072A 23340.60563448 -.00000254 00000-0 00000-0 0 9991 2 22907 14.4002 354.2169 0008655 344.1697 101.4247 1.00164917109920 GORIZONT 30 1 23108U 94030A 23340.70240883 .00000134 00000-0 00000-0 0 9992 2 23108 14.4303 355.1218 0003607 216.0020 149.2654 1.00187771108207 GORIZONT 31 1 23775U 96005A 23340.90404226 -.00000268 00000-0 00000-0 0 9990 2 23775 14.4839 1.4326 0020629 214.6820 150.5131 0.99897504101833 GORIZONT 32 1 23880U 96034A 23340.56577274 -.00000154 00000-0 00000-0 0 9999 2 23880 14.4418 1.9038 0006607 356.1736 4.9495 1.00137711100784 GORIZONT 33 1 26372U 00029A 23340.84103778 .00000061 00000-0 00000-0 0 9998 2 26372 13.4061 13.3898 0002483 167.9292 206.3285 1.00318337 86176